Regional Weather Roundup
Issued by NWS Albany, NY

Home | Current Version | Previous Version | Graphics & Text | Print | Product List | Glossary Off
Versions: 1 2 3 4 5 6 7 8 9 10 11 12 13 14 15 16 17 18 19 20 21 22 23 24 25 26 27 28 29 30 31 32 33 34 35 36 37 38 39 40 41 42 43 44 45 46 47 48 49 50

000
ASUS41 KALY 301810
RWRALY

NEW YORK STATE HOURLY WEATHER ROUNDUP
NATIONAL WEATHER SERVICE ALBANY NY
100 PM EST FRI JAN 30 2015

NOTE: "FAIR" INDICATES FEW OR NO CLOUDS BELOW 12,000 FEET WITH NO
SIGNIFICANT WEATHER AND/OR NO OBSTRUCTIONS TO VISIBILITY.

NYZ032-033-038>043-046>054-057>066-NYZ062>081-301900-
EAST


CITY           SKY/WX    TMP DP  RH WIND       PRES   REMARKS
ALBANY         FLURRIES  29  19  66 W17G26    29.84F WCI  17
GLENS FALLS    CLOUDY    27  21  78 NW16      29.83S HAZE    WCI  15
POUGHKEEPSIE   CLOUDY    36  22  56 NW10      29.81F WCI  28
NEWBURGH       PTSUNNY   34  23  64 NW17G29   29.83F WCI  23
MONTGOMERY     CLOUDY    34  20  56 NW20G29   29.81F WCI  23
WHITE PLAINS   PTSUNNY   34  24  67 NW16G24   29.79F WCI  24
ISLIP          CLOUDY    34  26  72 NW13      29.79F WCI  25
NEW YORK CITY  PTSUNNY   36  23  59 NW21G30   29.82F WCI  25
CENTRAL PARK   CLOUDY    38  21  50 NW12G18   29.85F WCI  30
$$

NYZ005>009-017-018-044>046-055-056-301900-
CENTRAL


CITY           SKY/WX    TMP DP  RH WIND       PRES   REMARKS
FULTON         LGT SNOW  18  12  77 NW17      30.06R VSB 3/4 WCI   3
SYRACUSE       CLOUDY    18  13  80 NW18      30.02S WCI   2
ROME           CLOUDY    24  16  71 W17       29.96S WCI  11
ELMIRA         LGT SNOW  25  15  66 NW17      30.00R WCI  12
BINGHAMTON     LGT SNOW  24  15  68 NW18G29   29.88S WCI  10
MONTICELLO     CLOUDY    27  19  74 NW18G28   29.81F WCI  13
$$

NYZ026>034-041>043-301900-
NORTH


CITY           SKY/WX    TMP DP  RH WIND       PRES   REMARKS
WATERTOWN      CLOUDY    16   4  59 N13       30.08R WCI   2
FORT DRUM      NOT AVBL
MASSENA        CLOUDY    14   2  58 NW12G22   30.04S WCI   0
SARANAC LAKE   LGT SNOW  13   7  77 NW9       29.82S WCI   1
PLATTSBURGH    CLOUDY    23  10  57 NW9G20    29.89R WCI  13
$$

NYZ001>004-010>016-019>021-301900-
WEST


CITY           SKY/WX    TMP DP  RH WIND       PRES   REMARKS
NIAGARA FALLS  LGT SNOW  14   7  73 NW21      30.21R WCI  -4
BUFFALO        LGT SNOW  15   7  70 NW15      30.19S WCI   0
DUNKIRK        CLOUDY    15   6  67 NW12G22   30.24S HAZE    WCI   2
JAMESTOWN      CLOUDY    10   1  67 NW16G26   30.12S WCI  -7
WELLSVILLE     FLURRIES  15   6  67 NW13G26   30.00S WCI   1
ROCHESTER      LGT SNOW  17   9  70 NW17G24   30.13S WCI   1
PENN YAN       LGT SNOW  19   8  62 NW18G30   30.03S WCI   4
$$

             KEY
       WCI = WIND CHILL INDEX
       VSB = VISIBILITY
       HX  = HEAT INDEX
$$


USA.gov is the U.S. government's official web portal to all federal, state and local government web resources and services.